Location: Siratepeler Tepesi
(39.1042°N, 32.0781°E)
Time: 04:51:37
(UTC+00:00)

Cosmos 1821 Rocket - Pass Details

Date: 11 April 2026
Orbit: 945 x 1002 km, 82.9° (Epoch: 9 May)

Event Time Altitude Azimuth Distance (km) Brightness Sun altitude
Exits shadow 18:37:54 53° 109° (ESE) 1,178 4.0 -24.4°
Maximum altitude 18:38:23 55° 92° (E) 1,163 4.0 -24.5°
Drops below altitude 10° 18:44:28 10° 16° (NNE) 2,745 6.6 -25.4°
Sets 18:47:04 0° 12° (NNE) 3,706 7.4 -25.8°
